Showing default

ORBCOMM FM 108, 41187

Orbit data source: Space-Track

ORBCOMM FM 108, 41187 is a payload satellite owned by Orbcomm (US) in LEO that was launched on Tue, 22 Dec 2015 UTC via an FALCON 9 launch vehicle from the Air Force Eastern Test Range (AFETR). Payload-class satellites include a variety of spacecraft equipped with specific instruments for various scientific and technological missions. These include communications satellites like Starlink; space stations such as the ISS; scientific satellites like the Hubble; Earth observation satellites from companies like Planet Labs, Umbra, and HawkEye 360; GPS; miniature CubeSats for education and research; and military/defense satellites.

Loading next visibility...
Identifier
41187, 2015-081J
Orbit
LEO
Last TLE update
20 hours ago
Origin
Manufacturer
SNC Louisville
Mission
Operational Commercial Communications
Bus & Motor
SN-100A, Unknown motor
Mass
172 kg wet, 158 kg dry
Launch date (UTC)
2015-12-22 (10 years ago)
Launch vehicle
FALCON 9
Launch site
Air Force Eastern Test Range (AFETR)
Object type
Payload
Rocket body
Debris
Shape & HBR
Box + 1 Pan + 1 Ant, 13 m
Radar Cross Section
2.222 m², Medium (>0.1 m² and < 1m²)

Expand to show TLE details & history

TLE from 20 hours ago
0 ORBCOMM FM 108
1 41187U 15081J   25182.01137803  .00000485  00000-0  14082-3 0  9992
2 41187  47.0059  41.6854 0002461   8.5097 351.5830 14.58165370508815
Epoch: 2025-07-01T00:16Z
TLE epoch observation values (Epoch: 2025-07-01T00:16:23.061Z)
Latitude
-0.00003°
Longitude
118.27633°
Altitude
697.597 km
Speed
7.51 km/s
True Right ascension
02h 46m 44s
True Declination
0° 00' 00"
Sunlit
Object was in daylight at epoch
Visualization orbit readout
Latitude
19.51774°
Longitude
-84.93558°
Altitude
700.202 km
Speed
7.508 km/s
Apparent Right ascension
16h 01m 11s
Apparent Declination
-13° 45' 47"
Sunlit
Object is in daylight
Visualization observer readout
Local Sidereal Time
08:22:24
Azimuth
84.953° E
Elevation
-27.64°
Doppler factor
1
Orbital elements
Apogee altitude
702.08 km
Perigee altitude
698.596 km
Semi-major axis
7,078.475 km
Eccentricity
0.00025
Inclination
47.0059°
RAAN
41.6854°
Arg. of periapsis
8.5097°
True anomaly
Unknown
Mean anomaly
351.583°
Eccentric anomaly
Unknown
Mean motion
3.64446 °/min
Orbital period
98.78 mins
BSTAR
0.00014082
Loading maneuver chart data...
Loading SW <> Apogee altitude chart data...
Loading historical data...
Loading historical data...
Loading historical data...
Loading historical data...
Loading historical data...
Loading historical data...
Loading historical data...

ORBCOMM FM 108 Visibility forecast

Observer location: undefined°, undefined°

Span
Click to sort rows by Start time (UTC) header in descending order
Start Az.
Max El. time (UTC)
Max El. Az.
Max El.
End time (UTC)
End Az.
9 mins2025-07-01 22:03:16.504Z302.22° NW2025-07-01 22:08:16.504Z31.157° NE35.073°2025-07-01 22:12:16.504Z87.416° E
8 mins2025-07-01 23:48:16.504Z289.815° WNW2025-07-01 23:51:16.504Z232.381° WSW41.707°2025-07-01 23:56:16.504Z133.154° SE
4 mins2025-07-02 15:54:16.504Z159.392° S2025-07-02 15:56:16.504Z131.81° SE15.91°2025-07-02 15:58:16.504Z104.75° ESE
8 mins2025-07-02 17:35:16.504Z231.876° WSW2025-07-02 17:39:16.504Z126.776° SE43.927°2025-07-02 17:43:16.504Z64.864° ENE
8 mins2025-07-02 19:19:16.504Z281.1° WNW2025-07-02 19:23:16.504Z359.928° N33.727°2025-07-02 19:27:16.504Z57.548° ENE
|